• In Kazakhstan
  • List of Countries
  • For 7 days
  • Water Temperature
  • Satellite Maps
  • Weather Map
  • News
  • Weather Widgets
  • user-avatar
    Login

    Hourly Weather Wien

    Today, 24 September, Sunday

    Time Temperature Precipitation Wind Pressure Humidity
    00:00 +12°C° 0.1 mm 2 mps 746 mmHg 88%
    01:00 +12°C° 0 mm 2 mps 746 mmHg 89%
    02:00 +12°C° 0 mm 1 mps 746 mmHg 89%
    03:00 +12°C° 0 mm 1 mps 746 mmHg 89%
    04:00 +12°C° 0 mm 1 mps 746 mmHg 89%
    05:00 +12°C° 0 mm 2 mps 746 mmHg 88%
    06:00 +12°C° 0 mm 2 mps 746 mmHg 87%
    07:00 +12°C° 0 mm 2 mps 746 mmHg 86%
    08:00 +14°C° 0 mm 2 mps 746 mmHg 81%
    09:00 +15°C° 0 mm 2 mps 746 mmHg 75%
    10:00 +16°C° 0 mm 2 mps 747 mmHg 70%
    11:00 +17°C° 0 mm 2 mps 746 mmHg 67%
    12:00 +18°C° 0 mm 2 mps 746 mmHg 64%
    13:00 +19°C° 0 mm 2 mps 746 mmHg 60%
    14:00 +18°C° 0 mm 2 mps 746 mmHg 61%
    15:00 +18°C° 0 mm 2 mps 746 mmHg 62%
    16:00 +18°C° 0 mm 2 mps 746 mmHg 62%
    17:00 +18°C° 0 mm 1 mps 746 mmHg 69%
    18:00 +15°C° 0 mm 1 mps 746 mmHg 76%
    19:00 +14°C° 0 mm 1 mps 746 mmHg 84%
    20:00 +13°C° 0 mm 1 mps 746 mmHg 85%
    21:00 +13°C° 0 mm 1 mps 747 mmHg 87%
    22:00 +13°C° 0 mm 1 mps 747 mmHg 89%
    23:00 +12°C° 0 mm 1 mps 747 mmHg 90%

    Tomorrow, 25 September, Monday

    Time Temperature Precipitation Wind Pressure Humidity
    00:00 +12°C° 0 mm 1 mps 747 mmHg 91%
    01:00 +12°C° 0 mm 1 mps 747 mmHg 92%
    02:00 +11°C° 0 mm 1 mps 747 mmHg 92%
    03:00 +11°C° 0 mm 1 mps 747 mmHg 93%
    04:00 +11°C° 0 mm 1 mps 746 mmHg 93%
    05:00 +10°C° 0 mm 0 mps 747 mmHg 91%
    06:00 +11°C° 0 mm 0 mps 747 mmHg 90%
    07:00 +11°C° 0 mm 0 mps 747 mmHg 88%
    08:00 +14°C° 0 mm 1 mps 747 mmHg 82%
    09:00 +16°C° 0 mm 1 mps 747 mmHg 75%
    10:00 +17°C° 0 mm 2 mps 747 mmHg 69%
    11:00 +18°C° 0.1 mm 2 mps 747 mmHg 66%
    12:00 +19°C° 0.1 mm 3 mps 747 mmHg 63%
    13:00 +20°C° 0.1 mm 3 mps 747 mmHg 61%
    14:00 +19°C° 0.1 mm 3 mps 747 mmHg 61%
    15:00 +19°C° 0.1 mm 3 mps 747 mmHg 62%
    16:00 +19°C° 0.1 mm 4 mps 746 mmHg 63%
    17:00 +18°C° 0 mm 3 mps 747 mmHg 68%
    18:00 +16°C° 0 mm 3 mps 747 mmHg 73%
    19:00 +14°C° 0 mm 3 mps 747 mmHg 78%
    20:00 +13°C° 0 mm 3 mps 747 mmHg 79%
    21:00 +13°C° 0 mm 3 mps 748 mmHg 81%
    22:00 +14°C° 0 mm 2 mps 748 mmHg 82%
    23:00 +13°C° 0 mm 2 mps 748 mmHg 83%

    Day after tomorrow, 26 September, Tuesday

    Time Temperature Precipitation Wind Pressure Humidity
    00:00 +12°C° 0 mm 3 mps 748 mmHg 84%
    01:00 +12°C° 0 mm 3 mps 748 mmHg 85%
    02:00 +12°C° 0 mm 2 mps 748 mmHg 86%
    03:00 +12°C° 0 mm 2 mps 748 mmHg 87%
    04:00 +12°C° 0 mm 2 mps 748 mmHg 88%
    05:00 +12°C° 0 mm 2 mps 748 mmHg 87%
    06:00 +12°C° 0 mm 2 mps 748 mmHg 86%
    07:00 +13°C° 0 mm 2 mps 749 mmHg 85%
    08:00 +14°C° 0 mm 3 mps 749 mmHg 77%
    09:00 +17°C° 0 mm 3 mps 749 mmHg 69%
    10:00 +19°C° 0 mm 3 mps 749 mmHg 61%
    11:00 +20°C° 0 mm 3 mps 749 mmHg 59%
    12:00 +20°C° 0 mm 3 mps 749 mmHg 56%
    13:00 +21°C° 0 mm 3 mps 749 mmHg 53%
    14:00 +21°C° 0 mm 3 mps 749 mmHg 54%
    15:00 +21°C° 0 mm 3 mps 748 mmHg 55%
    16:00 +21°C° 0 mm 3 mps 748 mmHg 56%
    17:00 +19°C° 0 mm 2 mps 749 mmHg 62%
    18:00 +18°C° 0 mm 2 mps 749 mmHg 67%
    19:00 +16°C° 0 mm 1 mps 749 mmHg 73%
    20:00 +16°C° 0 mm 1 mps 749 mmHg 75%
    21:00 +15°C° 0 mm 1 mps 749 mmHg 77%
    22:00 +15°C° 0 mm 1 mps 750 mmHg 79%
    23:00 +14°C° 0 mm 1 mps 750 mmHg 81%

    27 September, Wednesday

    Time Temperature Precipitation Wind Pressure Humidity
    00:00 +14°C° 0 mm 1 mps 750 mmHg 82%
    01:00 +14°C° 0 mm 1 mps 750 mmHg 84%
    02:00 +14°C° 0 mm 1 mps 750 mmHg 85%
    03:00 +13°C° 0 mm 1 mps 750 mmHg 86%
    04:00 +13°C° 0 mm 1 mps 750 mmHg 87%
    05:00 +13°C° 0 mm 1 mps 750 mmHg 86%
    06:00 +14°C° 0 mm 1 mps 750 mmHg 85%
    07:00 +14°C° 0 mm 1 mps 750 mmHg 84%
    08:00 +16°C° 0 mm 1 mps 750 mmHg 77%
    09:00 +18°C° 0 mm 2 mps 750 mmHg 70%
    10:00 +20°C° 0 mm 2 mps 751 mmHg 63%
    11:00 +21°C° 0 mm 3 mps 750 mmHg 60%
    12:00 +22°C° 0 mm 3 mps 750 mmHg 57%
    13:00 +22°C° 0 mm 3 mps 750 mmHg 54%
    14:00 +22°C° 0 mm 3 mps 750 mmHg 55%
    15:00 +22°C° 0 mm 3 mps 750 mmHg 56%
    16:00 +22°C° 0 mm 3 mps 750 mmHg 58%
    17:00 +20°C° 0 mm 3 mps 750 mmHg 64%
    18:00 +18°C° 0 mm 2 mps 750 mmHg 70%
    19:00 +17°C° 0 mm 2 mps 750 mmHg 76%
    20:00 +16°C° 0 mm 2 mps 751 mmHg 78%
    21:00 +16°C° 0 mm 2 mps 751 mmHg 80%
    22:00 +15°C° 0 mm 2 mps 751 mmHg 83%
    23:00 +15°C° 0 mm 2 mps 751 mmHg 84%

    28 September, Thursday

    Time Temperature Precipitation Wind Pressure Humidity
    00:00 +14°C° 0 mm 2 mps 751 mmHg 84%
    01:00 +14°C° 0 mm 2 mps 751 mmHg 85%
    02:00 +14°C° 0 mm 2 mps 751 mmHg 85%
    03:00 +13°C° 0 mm 2 mps 751 mmHg 85%
    04:00 +13°C° 0 mm 2 mps 751 mmHg 84%
    05:00 +13°C° 0 mm 2 mps 751 mmHg 82%
    06:00 +13°C° 0 mm 2 mps 751 mmHg 80%
    07:00 +13°C° 0 mm 2 mps 752 mmHg 78%
    08:00 +15°C° 0 mm 2 mps 752 mmHg 70%
    09:00 +17°C° 0 mm 2 mps 752 mmHg 62%
    10:00 +19°C° 0 mm 3 mps 752 mmHg 54%
    11:00 +20°C° 0 mm 3 mps 752 mmHg 51%
    12:00 +21°C° 0 mm 3 mps 752 mmHg 48%
    13:00 +22°C° 0 mm 3 mps 751 mmHg 45%
    14:00 +22°C° 0 mm 3 mps 751 mmHg 46%
    15:00 +21°C° 0 mm 3 mps 751 mmHg 48%
    16:00 +21°C° 0 mm 2 mps 751 mmHg 49%
    17:00 +19°C° 0 mm 2 mps 751 mmHg 54%
    18:00 +18°C° 0 mm 2 mps 751 mmHg 59%
    19:00 +16°C° 0 mm 2 mps 752 mmHg 64%
    20:00 +15°C° 0 mm 1 mps 752 mmHg 66%
    21:00 +15°C° 0 mm 1 mps 752 mmHg 68%
    22:00 +14°C° 0 mm 1 mps 752 mmHg 70%
    23:00 +14°C° 0 mm 1 mps 752 mmHg 71%

    29 September, Friday

    Time Temperature Precipitation Wind Pressure Humidity
    00:00 +13°C° 0 mm 1 mps 752 mmHg 73%
    01:00 +13°C° 0 mm 1 mps 752 mmHg 75%
    02:00 +12°C° 0 mm 1 mps 752 mmHg 76%
    03:00 +12°C° 0 mm 1 mps 752 mmHg 77%
    04:00 +12°C° 0 mm 1 mps 752 mmHg 79%
    05:00 +12°C° 0 mm 1 mps 752 mmHg 78%
    06:00 +12°C° 0 mm 1 mps 752 mmHg 78%
    07:00 +12°C° 0 mm 1 mps 752 mmHg 77%
    08:00 +14°C° 0 mm 1 mps 752 mmHg 69%
    09:00 +16°C° 0 mm 2 mps 752 mmHg 62%
    10:00 +18°C° 0 mm 2 mps 751 mmHg 55%
    11:00 +19°C° 0 mm 2 mps 751 mmHg 51%
    12:00 +20°C° 0 mm 2 mps 751 mmHg 48%
    13:00 +21°C° 0 mm 3 mps 750 mmHg 45%
    14:00 +21°C° 0 mm 3 mps 750 mmHg 46%
    15:00 +21°C° 0 mm 3 mps 750 mmHg 48%
    16:00 +20°C° 0 mm 3 mps 749 mmHg 49%
    17:00 +19°C° 0 mm 2 mps 750 mmHg 54%
    18:00 +17°C° 0 mm 2 mps 750 mmHg 60%
    19:00 +15°C° 0 mm 2 mps 750 mmHg 65%
    20:00 +15°C° 0 mm 2 mps 750 mmHg 67%
    21:00 +14°C° 0 mm 2 mps 750 mmHg 68%
    22:00 +14°C° 0 mm 2 mps 750 mmHg 70%
    23:00 +13°C° 0 mm 2 mps 749 mmHg 70%
    Show more